Del Bajio, Mexico

5:12 AM CDT on April 26, 2017 (GMT -0500)
De Guanajuato International

Weather History for MMLO - October, 2011

Change the Weather History Date:

Thursday, October 20, 2011

  Actual Average Record
Temperature  
Mean Temperature 63 °F -  
Max Temperature 82 °F 79 °F 91 °F (2005)
Min Temperature 44 °F 51 °F 42 °F (1997)
Degree Days  
Heating Degree Days 2    
Growing Degree Days 13 (Base 50)    
Moisture  
Dew Point 38 °F    
Average Humidity 40    
Maximum Humidity 76    
Minimum Humidity 20    
Precipitation  
Precipitation 0.00 in - - ()
Sea Level Pressure  
Sea Level Pressure 30.17 in    
Wind  
Wind Speed 3 mph ()    
Max Wind Speed 14 mph    
Max Gust Speed -    
Visibility 9.4 miles    
Events      
Averages and records for this station are not official NWS values.
T = Trace of Precipitation, MM = Missing Value Source: Averaged Metar Reports

Daily Weather History Graph

Daily Weather History Graph

Search for Another Location

Airport or City:

Trip Planner

Search our weather history database for the weather conditions in past years. The results will help you decide how hot, cold, wet, or windy it might be!

Date:

Astronomy

Oct. 20, 2011 Rise Set
Actual Time 7:43 AM CDT 7:17 PM CDT
Civil Twilight 7:20 AM CDT 7:40 PM CDT
Nautical Twilight 6:54 AM CDT 8:06 PM CDT
Astronomical Twilight 6:28 AM CDT 8:32 PM CDT
Moon 1:22 AM CDT (10/20) 2:40 PM CDT (10/20)
Length of Visible Light 12h 19m
Length of Day
11h 34m
Last Quarter, 44% of the Moon is Illuminated
Oct 20
Last Quarter
Oct 26
New
Nov 2
First Quarter
Nov 10
Full
Nov 18
Last Quarter

Hourly Weather History & Observations

Time (CDT) Temp. Dew Point Humidity Pressure Visibility Wind Dir Wind Speed Gust Speed Precip Events Conditions
12:49 AM 60.8 °F 33.8 °F 36% 29.95 in 8.0 mi East 13.8 mph - N/A   Clear
1:47 AM 60.8 °F 37.4 °F 42% 30.30 in 8.0 mi Calm Calm - N/A   Clear
3:40 AM 51.8 °F 37.4 °F 58% 29.94 in 8.0 mi Calm Calm - N/A   Clear
4:45 AM 51.8 °F 37.4 °F 58% 30.30 in 8.0 mi Calm Calm - N/A   Clear
5:51 AM 50.0 °F 35.6 °F 58% 30.29 in 8.0 mi Calm Calm - N/A   Clear
6:50 AM 44.6 °F 33.8 °F 66% 30.01 in 8.0 mi Calm Calm - N/A   Clear
7:45 AM 44.6 °F 37.4 °F 76% 30.33 in 9.0 mi Calm Calm - N/A   Clear
9:01 AM 55.4 °F 39.2 °F 54% 30.35 in 10.0 mi Calm Calm - N/A   Clear
9:48 AM 62.6 °F 39.2 °F 42% 30.02 in 10.0 mi Calm Calm - N/A   Clear
10:43 AM 66.2 °F 39.2 °F 37% 30.38 in 10.0 mi Calm Calm - N/A   Clear
11:50 AM 69.8 °F 37.4 °F 31% 30.35 in 10.0 mi Calm Calm - N/A   Clear
12:49 PM 75.2 °F 39.2 °F 27% 29.96 in 10.0 mi Calm Calm - N/A   Clear
1:49 PM 78.8 °F 39.2 °F 24% 30.30 in 10.0 mi SW 3.5 mph - N/A   Clear
2:47 PM 80.6 °F 39.2 °F 23% 30.26 in 10.0 mi South 3.5 mph - N/A   Clear
3:54 PM 82.4 °F 37.4 °F 20% 29.85 in 12.0 mi Calm Calm - N/A   Clear
4:43 PM 82.4 °F 37.4 °F 20% 30.22 in 12.0 mi SE 3.5 mph - N/A   Clear
5:49 PM 82.4 °F 37.4 °F 20% 30.22 in 12.0 mi South 3.5 mph - N/A   Clear
6:44 PM 80.6 °F 37.4 °F 21% 29.91 in 12.0 mi South 3.5 mph - N/A   Clear
7:47 PM 71.6 °F 35.6 °F 27% 30.24 in 10.0 mi SSW 4.6 mph - N/A   Clear
8:40 PM 64.4 °F 42.8 °F 45% 30.25 in 8.0 mi NE 5.8 mph - N/A   Clear
9:44 PM 60.8 °F 41.0 °F 48% 29.98 in 8.0 mi NE 8.1 mph - N/A   Clear
10:42 PM 59.0 °F 39.2 °F 48% 30.30 in 8.0 mi NNE 6.9 mph - N/A   Clear
11:43 PM 60.8 °F 35.6 °F 39% 30.30 in 8.0 mi NE 9.2 mph - N/A   Clear